Tiempo atmosférico en la estación meteorológica de Las Palmas de Gran Canaria, Tafira, Las Palmas (269 m.)



Fecha
DESCASC
Temp. máxima en grados centígrados (hora)
DESCASC
Temp. mínima en grados centígrados (hora)
DESCASC
Temp. media en grados centígrados
DESCASC
Racha de viento máxima en m/sg (hora)
DESCASC
Velocidad máxima media en intervalos de 10 minutos(hora)
DESCASC
Precipitaciones diarias en mm
DESCASC
Precipitaciones de 00:00 a 06:00 en mm
DESCASC
Precipitaciones de 06:00 a 12:00 en mm
DESCASC
Precipitaciones de 12:00 a 18:00 en mm
DESCASC
Precipitaciones de 18:00 a 24:00 en mm
DESCASC
13-01-2021 16.6 (14:50) 12.5 (00:00) 14.6 6.94 (10:20) 3.61 (10:50) 2.4 2.4 0 0 0
11-01-2021 15.4 (13:00) 12.2 (00:00) 13.8 10 (01:00) 5.28 (01:00) 5.4 2.2 0 3 0.2
09-01-2021 14.8 (14:10) 11.3 (00:00) 13.1 13.89 (17:20) 7.78 (11:20) 6.4 2 2.2 2.2 0
12-01-2021 15.8 (11:10) 11.6 (00:00) 13.7 7.22 (06:10) 3.61 (06:00) 7 0.8 1.4 3.2 1.6
23-01-2021 18.3 (15:20) 14.6 (00:00) 16.4 4.72 (15:50) 2.5 (15:30) 2.2 0.8 1.4 0 0
22-01-2021 17.6 (12:20) 15.6 (00:00) 16.6 6.39 (12:10) 3.06 (13:10) 1 0.8 0 0 0.2
10-01-2021 16.2 (15:00) 12.1 (05:10) 14.2 15.28 (14:50) 7.78 (13:50) 1.8 0.6 0.4 0 0.8
08-01-2021 19.6 (02:50) 11.9 (00:00) 15.8 15.56 (03:40) 7.22 (03:40) 31.2 0.4 6.4 9.2 15.2
18-01-2021 17.7 (14:30) 11.3 (00:00) 14.5 5.56 (14:10) 3.06 (07:30) 0 0 0 0 0
16-01-2021 17.5 (12:20) 13.2 (00:00) 15.3 6.11 (14:50) 3.33 (14:00) 0.2 0 0 0.2 0
17-01-2021 17.7 (12:30) 12.3 (00:00) 15 6.11 (13:20) 3.06 (12:30) 0 0 0 0 0
26-01-2021 18.7 (13:10) 15.1 (00:00) 16.9 5.83 (13:30) 2.78 (22:00) 0 0 0 0 0
19-01-2021 17.7 (13:10) 10.6 (00:00) 14.2 6.39 (13:40) 3.61 (13:30) 0 0 0 0 0
20-01-2021 17.9 (12:40) 10.5 (00:00) 14.2 5 (12:30) 3.06 (07:50) 0 0 0 0 0
21-01-2021 19 (14:30) 13.8 (00:00) 16.4 6.39 (13:00) 3.89 (13:00) 0.4 0 0 0 0.4
24-01-2021 19.2 (13:00) 13 (00:00) 16.1 4.17 (12:50) 2.5 (11:00) 0 0 0 0 0
25-01-2021 18.4 (12:30) 12.2 (00:00) 15.3 5 (14:00) 2.78 (13:30) 0 0 0 0 0
28-12-2020 22.3 (13:20) 13.7 (00:00) 18 5.56 (03:10) 3.61 (03:10) 0 0 0 0 0
15-01-2021 16 (13:30) 13.3 (00:00) 14.7 6.94 (16:10) 3.33 (08:50) 0 0 0 0 0
14-01-2021 17.1 (12:00) 12.7 (03:30) 14.9 7.22 (13:00) 3.06 (13:00) 0 0 0 0 0
07-01-2021 23.6 (14:40) 17.3 (00:00) 20.4 9.44 (17:00) 4.17 (16:00) 0.8 0 0.4 0.2 0.2
06-01-2021 22.3 (17:30) 15.7 (00:00) 19 9.17 (16:40) 4.72 (16:40) 0 0 0 0 0
05-01-2021 21.6 (11:30) 14.2 (00:00) 17.9 6.11 (13:00) 3.33 (13:00) 0 0 0 0 0
04-01-2021 18.6 (12:50) 13.9 (00:00) 16.3 7.5 (10:30) 3.89 (10:30) 0 0 0 0 0
03-01-2021 17 (16:10) 13.5 (00:00) 15.3 4.72 (17:00) 2.5 (12:40) 0 0 0 0 0
02-01-2021 16.5 (15:10) 13.2 (00:00) 14.8 4.72 (16:30) 2.22 (16:10) 0 0 0 0 0
01-01-2021 16.7 (13:40) 13.1 (00:00) 14.9 6.67 (11:20) 3.06 (11:20) 0.4 0 0.2 0 0.2
31-12-2020 16.8 (15:40) 12.9 (00:00) 14.8 6.39 (19:30) 3.61 (19:30) 0 0 0 0 0
30-12-2020 17.7 (13:10) 12.9 (00:00) 15.3 5.28 (15:20) 2.78 (08:50) 0.8 0 0 0 0.8
29-12-2020 17.7 (13:50) 13.9 (00:00) 15.8 5.28 (12:30) 2.78 (12:30) 0 0 0 0 0

Gráficas

Temp. máximas Temp. mínimas Temp. medias Precipitaciones Rachas de viento máximas Velocidades máximas media en intervalos de 10 minutos

Datos horarios

Fecha y hora oficial Temperatura (ºC) Velocidad del viento (km/h) Dirección del viento Racha (km/h) Dirección de racha Precipitación (mm) Presión (hPa) Tendencia (hPa) Humedad (%)
2021-01-26 23:00:00 16.1 6 Noroeste 16 Noroeste 0 -- -- 89
2021-01-26 22:00:00 16.1 10 Noroeste 15 Noroeste 0 -- -- 89
2021-01-26 21:00:00 16.1 7 Noroeste 14 Noroeste 0 -- -- 88
2021-01-26 20:00:00 16.3 8 Noroeste 16 Noroeste 0 -- -- 88
2021-01-26 19:00:00 16.4 7 Noroeste 14 Noroeste 0 -- -- 86
2021-01-26 18:00:00 16.8 6 Noroeste 14 Noroeste 0 -- -- 83
2021-01-26 17:00:00 17.2 7 Norte 16 Noroeste 0 -- -- 80
2021-01-26 16:00:00 18.1 7 Norte 20 Noroeste 0 -- -- 78
2021-01-26 15:00:00 18.6 8 Norte 18 Este 0 -- -- 74
2021-01-26 14:00:00 18.5 6 Norte 21 Nordeste 0 -- -- 76
2021-01-26 13:00:00 18.6 7 Norte 17 Nordeste 0 -- -- 75
2021-01-26 12:00:00 17.6 6 Nordeste 16 Nordeste 0 -- -- 75
2021-01-26 11:00:00 16.9 5 Norte 14 Nordeste 0 -- -- 79
2021-01-26 10:00:00 16 4 Norte 10 Norte 0 -- -- 84
2021-01-26 09:00:00 15.7 4 Nordeste 11 Norte 0 -- -- 82
2021-01-26 08:00:00 15.2 4 Sudoeste 8 Nordeste 0 -- -- 85
2021-01-26 07:00:00 15.2 0 Calma 10 Oeste 0 -- -- 85
2021-01-26 06:00:00 15.2 3 Noroeste 11 Norte 0 -- -- 84
2021-01-26 05:00:00 15.2 5 Noroeste 13 Noroeste 0 -- -- 85
2021-01-26 04:00:00 15.1 5 Noroeste 12 Noroeste 0 -- -- 83
2021-01-26 03:00:00 15.1 5 Noroeste 12 Nordeste 0 -- -- 84
2021-01-26 02:00:00 15.1 0 Calma 11 Norte 0 -- -- 83
2021-01-26 01:00:00 15.4 5 Norte 10 Norte 0 -- -- 82
2021-01-26 00:00:00 15.6 3 Noroeste 11 Noroeste 0 -- -- 82
2021-01-25 23:00:00 15.8 3 Norte 11 Nordeste 0 -- -- 81
2021-01-25 22:00:00 16 5 Nordeste 9 Nordeste 0 -- -- 81
2021-01-25 21:00:00 15.9 5 Norte 14 Norte 0 -- -- 81
2021-01-25 20:00:00 15.9 4 Noroeste 13 Noroeste 0 -- -- 82
2021-01-25 19:00:00 16.1 5 Noroeste 18 Noroeste 0 -- -- 83
2021-01-25 18:00:00 16.5 5 Norte 14 Noroeste 0 -- -- 82
2021-01-25 17:00:00 17.3 5 Nordeste 17 Nordeste 0 -- -- 80
2021-01-25 16:00:00 17.8 6 Nordeste 17 Nordeste 0 -- -- 78
2021-01-25 15:00:00 18.3 7 Nordeste 16 Nordeste 0 -- -- 78
2021-01-25 14:00:00 18.2 9 Noroeste 18 Noroeste 0 -- -- 79
2021-01-25 13:00:00 18.1 8 Norte 16 Norte 0 -- -- 81
2021-01-25 12:00:00 17.9 5 Nordeste 13 Norte 0 -- -- 81
2021-01-25 11:00:00 17.9 6 Nordeste 13 Nordeste 0 -- -- 83
2021-01-25 10:00:00 16.4 3 Noroeste 7 Noroeste 0 -- -- 91
2021-01-25 09:00:00 14.4 4 Oeste 8 Oeste 0 -- -- 93
2021-01-25 08:00:00 12.8 3 Sudoeste 6 Sudoeste 0 -- -- 92
2021-01-25 07:00:00 12.2 2 Sudoeste 7 Sur 0 -- -- 85
2021-01-25 06:00:00 12.6 4 Sur 9 Sur 0 -- -- 79
2021-01-25 05:00:00 13 5 Sur 7 Sur 0 -- -- 91
2021-01-25 04:00:00 13.4 4 Sudeste 6 Sur 0 -- -- 94
2021-01-25 03:00:00 13.6 4 Sur 6 Este 0 -- -- 93
2021-01-25 02:00:00 13.6 3 Sudeste 10 Sur 0 -- -- 90
2021-01-25 01:00:00 13.4 3 Sur 8 Sur 0 -- -- 85
2021-01-25 00:00:00 13.6 6 Sur 9 Sur 0 -- -- 83
2021-01-24 23:00:00 13.6 0 Calma 9 Sur 0 -- -- 86
2021-01-24 22:00:00 14.3 6 Sur 8 Sur 0 -- -- 90
2021-01-24 21:00:00 15.4 0 Calma 5 Sudeste 0 -- -- 94
2021-01-24 20:00:00 16.1 3 Sudeste 8 Sudeste 0 -- -- 94
2021-01-24 19:00:00 16.5 3 Este 9 Este 0 -- -- 92
2021-01-24 18:00:00 17.4 4 Este 8 Este 0 -- -- 88
2021-01-24 17:00:00 17.7 5 Este 10 Nordeste 0 -- -- 86
2021-01-24 16:00:00 18.4 5 Este 11 Nordeste 0 -- -- 83
2021-01-24 15:00:00 18.9 6 Este 13 Este 0 -- -- 79
2021-01-24 14:00:00 19.1 6 Nordeste 14 Este 0 -- -- 79
2021-01-24 13:00:00 19.2 6 Este 15 Nordeste 0 -- -- 77
2021-01-24 12:00:00 18.8 6 Nordeste 13 Nordeste 0 -- -- 77
2021-01-24 11:00:00 18.4 9 Este 14 Este 0 -- -- 78
2021-01-24 10:00:00 16.9 3 Nordeste 7 Este 0 -- -- 92
2021-01-24 09:00:00 14.6 3 Este 5 Sur 0 -- -- 96
2021-01-24 08:00:00 13.5 2 Sudeste 4 Sudeste 0 -- -- 96
2021-01-24 07:00:00 13.5 3 Sudeste 5 Sur 0 -- -- 95
2021-01-24 06:00:00 14.2 4 Este 6 Este 0 -- -- 95
2021-01-24 05:00:00 13.1 5 Sur 6 Sur 0 -- -- 92
2021-01-24 04:00:00 13.2 2 Sudeste 11 Sur 0 -- -- 91
2021-01-24 03:00:00 13.9 6 Sur 10 Sur 0 -- -- 91
2021-01-24 02:00:00 14.1 4 Sur 6 Sur 0 -- -- 91
2021-01-24 01:00:00 14.5 0 Calma 5 Sur 0 -- -- 90
2021-01-24 00:00:00 15.1 0 Calma 4 Sur 0 -- -- 91
2021-01-23 23:00:00 15 2 Sur 6 Sur 0 -- -- 91
2021-01-23 22:00:00 14.6 3 Oeste 5 Sudoeste 0 -- -- 91
2021-01-23 21:00:00 14.9 4 Sudoeste 7 Oeste 0 -- -- 91
2021-01-23 20:00:00 15.1 4 Noroeste 7 Noroeste 0 -- -- 89
2021-01-23 19:00:00 15.6 2 Nordeste 10 Nordeste 0 -- -- 87
2021-01-23 18:00:00 16.2 4 Norte 10 Nordeste 0 -- -- 84
2021-01-23 17:00:00 17 6 Nordeste 14 Nordeste 0 -- -- 82
2021-01-23 16:00:00 17.9 6 Nordeste 17 Nordeste 0 -- -- 79
2021-01-23 15:00:00 17.9 7 Norte 17 Nordeste 0 -- -- 80
2021-01-23 14:00:00 18.2 5 Norte 15 Nordeste 0 -- -- 78
2021-01-23 13:00:00 18 7 Nordeste 13 Este 0 -- -- 83
2021-01-23 12:00:00 17.4 4 Norte 11 Nordeste 0 -- -- 88
2021-01-23 11:00:00 16.2 5 Nordeste 13 Nordeste 0.2 -- -- 96
2021-01-23 10:00:00 15.9 4 Nordeste 10 Nordeste 0.2 -- -- 97
2021-01-23 09:00:00 15.6 3 Sudoeste 8 Sudoeste 0.8 -- -- 97
2021-01-23 08:00:00 15.5 5 Sudoeste 8 Sudoeste 0 -- -- 96
2021-01-23 07:00:00 15.3 3 Oeste 6 Oeste 0.2 -- -- 96
2021-01-23 06:00:00 15.2 3 Oeste 7 Sudoeste 0 -- -- 96
2021-01-23 05:00:00 15.1 3 Sudoeste 6 Sudoeste 0.2 -- -- 96
2021-01-23 04:00:00 15.4 2 Oeste 5 Sudoeste 0.2 -- -- 96
2021-01-23 03:00:00 15.6 4 Sudoeste 8 Sudoeste 0 -- -- 96
2021-01-23 02:00:00 15.7 3 Oeste 9 Oeste 0.4 -- -- 96
2021-01-23 01:00:00 15.8 3 Oeste 6 Oeste 0 -- -- 96
2021-01-23 00:00:00 15.9 3 Oeste 8 Oeste 0.2 -- -- 96
2021-01-22 23:00:00 15.9 3 Noroeste 13 Noroeste 0 -- -- 94
2021-01-22 22:00:00 16.2 5 Noroeste 11 Noroeste 0 -- -- 92
2021-01-22 21:00:00 16.3 5 Noroeste 12 Norte 0 -- -- 90
2021-01-22 20:00:00 16.4 7 Noroeste 13 Noroeste 0 -- -- 94
2021-01-22 19:00:00 16.6 4 Noroeste 10 Noroeste 0 -- -- 93
2021-01-22 18:00:00 17.1 3 Este 10 Noroeste 0 -- -- 86
2021-01-22 17:00:00 17.3 4 Norte 13 Noroeste 0 -- -- 84
2021-01-22 16:00:00 17.2 8 Noroeste 15 Oeste 0 -- -- 86
2021-01-22 15:00:00 17 5 Noroeste 18 Noroeste 0 -- -- 89
2021-01-22 14:00:00 16.9 10 Noroeste 18 Noroeste 0 -- -- 88
2021-01-22 13:00:00 17.4 8 Noroeste 23 Oeste 0 -- -- 86
2021-01-22 12:00:00 17.4 9 Noroeste 18 Noroeste 0 -- -- 88
2021-01-22 11:00:00 16.5 11 Noroeste 19 Noroeste 0 -- -- 93
2021-01-22 10:00:00 16.1 10 Noroeste 18 Noroeste 0 -- -- 97
2021-01-22 09:00:00 15.7 7 Noroeste 16 Noroeste 0 -- -- 98
2021-01-22 08:00:00 15.7 10 Noroeste 16 Norte 0 -- -- 98
2021-01-22 07:00:00 16 8 Noroeste 14 Noroeste 0 -- -- 98
2021-01-22 06:00:00 15.7 5 Noroeste 12 Oeste 0.2 -- -- 97
2021-01-22 05:00:00 15.9 5 Oeste 12 Oeste 0 -- -- 96
2021-01-22 04:00:00 16 6 Noroeste 13 Oeste 0 -- -- 97
2021-01-22 03:00:00 16 6 Oeste 15 Noroeste 0.2 -- -- 97
2021-01-22 02:00:00 16 6 Oeste 15 Noroeste 0.4 -- -- 97
2021-01-22 01:00:00 16.1 6 Oeste 12 Oeste 0 -- -- 96
2021-01-22 00:00:00 16.1 6 Oeste 18 Oeste 0.4 -- -- 96
2021-01-21 23:00:00 16.2 6 Oeste 17 Noroeste 0 -- -- 94
2021-01-21 22:00:00 16.2 5 Oeste 16 Oeste 0 -- -- 87
2021-01-21 21:00:00 16.1 5 Oeste 11 Oeste 0 -- -- 88
2021-01-21 20:00:00 16.1 6 Noroeste 13 Noroeste 0 -- -- 91
2021-01-21 19:00:00 16.4 6 Noroeste 18 Noroeste 0 -- -- 88
2021-01-21 18:00:00 17.5 9 Noroeste 18 Noroeste 0 -- -- 82
2021-01-21 17:00:00 18.2 10 Noroeste 22 Norte 0 -- -- 79
2021-01-21 16:00:00 18.6 11 Noroeste 21 Noroeste 0 -- -- 78
2021-01-21 15:00:00 18.7 12 Noroeste 20 Noroeste 0 -- -- 78
2021-01-21 14:00:00 18.7 10 Noroeste 22 Noroeste 0 -- -- 78
2021-01-21 13:00:00 18.5 14 Noroeste 23 Noroeste 0 -- -- 78
2021-01-21 12:00:00 18.3 10 Noroeste 20 Noroeste 0 -- -- 76
2021-01-21 11:00:00 17.4 9 Noroeste 17 Noroeste 0 -- -- 83
2021-01-21 10:00:00 15.6 6 Noroeste 11 Oeste 0 -- -- 93
2021-01-21 09:00:00 15.4 4 Oeste 10 Noroeste 0 -- -- 90
2021-01-21 08:00:00 15.2 5 Oeste 14 Oeste 0 -- -- 89
2021-01-21 07:00:00 15.1 4 Oeste 7 Oeste 0 -- -- 89
2021-01-21 06:00:00 15 3 Sudoeste 8 Oeste 0 -- -- 88
2021-01-21 05:00:00 14.9 3 Oeste 6 Oeste 0 -- -- 89
2021-01-21 04:00:00 14.8 3 Sudoeste 10 Noroeste 0 -- -- 89
2021-01-21 03:00:00 14.3 3 Sudoeste 12 Oeste 0 -- -- 88
2021-01-21 02:00:00 13.8 6 Oeste 18 Oeste 0 -- -- 87
2021-01-21 01:00:00 14 11 Oeste 19 Oeste 0 -- -- 86
2021-01-21 00:00:00 14 8 Oeste 18 Oeste 0 -- -- 86
2021-01-20 23:00:00 13.1 6 Oeste 13 Oeste 0 -- -- 88
2021-01-20 22:00:00 13.4 3 Sudoeste 8 Sudoeste 0 -- -- 86
2021-01-20 21:00:00 14.2 3 Oeste 9 Noroeste 0 -- -- 84
2021-01-20 20:00:00 15.2 5 Noroeste 10 Oeste 0 -- -- 80
2021-01-20 19:00:00 15.8 3 Norte 6 Este 0 -- -- 78
2021-01-20 18:00:00 16.4 5 Nordeste 9 Nordeste 0 -- -- 76
2021-01-20 17:00:00 16.8 4 Nordeste 9 Nordeste 0 -- -- 74
2021-01-20 16:00:00 16.9 4 Nordeste 11 Este 0 -- -- 74
2021-01-20 15:00:00 17.3 5 Nordeste 12 Este 0 -- -- 72
2021-01-20 14:00:00 17.7 3 Nordeste 16 Nordeste 0 -- -- 71
2021-01-20 13:00:00 17.7 9 Este 18 Este 0 -- -- 69
2021-01-20 12:00:00 17.5 7 Este 14 Este 0 -- -- 67
2021-01-20 11:00:00 17.1 5 Este 10 Este 0 -- -- 70
2021-01-20 10:00:00 15.8 3 Sur 11 Sudoeste 0 -- -- 72
2021-01-20 09:00:00 12.6 9 Sur 15 Sur 0 -- -- 75
2021-01-20 08:00:00 10.9 11 Sur 15 Sur 0 -- -- 78
2021-01-20 07:00:00 10.7 10 Sur 15 Sur 0 -- -- 80
2021-01-20 06:00:00 10.6 9 Sur 13 Sur 0 -- -- 77
2021-01-20 05:00:00 11 10 Sur 13 Sur 0 -- -- 74
2021-01-20 04:00:00 11 9 Sur 13 Sur 0 -- -- 76
2021-01-20 03:00:00 11.1 10 Sur 14 Sur 0 -- -- 79
2021-01-20 02:00:00 11.4 6 Sudoeste 11 Sur 0 -- -- 81
2021-01-20 01:00:00 11.5 8 Sudoeste 15 Sur 0 -- -- 79
2021-01-20 00:00:00 11.8 6 Sur 12 Sudoeste 0 -- -- 83
2021-01-19 23:00:00 12 4 Sudoeste 9 Sur 0 -- -- 88
2021-01-19 22:00:00 12.3 6 Sur 13 Sur 0 -- -- 84
2021-01-19 21:00:00 13 6 Sur 9 Sur 0 -- -- 88
2021-01-19 20:00:00 13.9 4 Sudoeste 8 Sudeste 0 -- -- 85
2021-01-19 19:00:00 15 4 Sudeste 7 Sudeste 0 -- -- 82
2021-01-19 18:00:00 15.8 0 Calma 7 Este 0 -- -- 79
2021-01-19 17:00:00 15.8 4 Este 18 Este 0 -- -- 78
2021-01-19 16:00:00 16.2 8 Este 19 Sudeste 0 -- -- 78
2021-01-19 15:00:00 16.5 6 Este 22 Este 0 -- -- 76
2021-01-19 14:00:00 17.3 13 Este 23 Sudeste 0 -- -- 73
2021-01-19 13:00:00 17.4 12 Este 20 Este 0 -- -- 72
2021-01-19 12:00:00 17.2 9 Este 21 Este 0 -- -- 70
2021-01-19 11:00:00 16.3 9 Sudeste 18 Sudeste 0 -- -- 71
2021-01-19 10:00:00 15.3 5 Sudeste 15 Sur 0 -- -- 78
2021-01-19 09:00:00 11.7 11 Sur 17 Sur 0 -- -- 79
2021-01-19 08:00:00 11.7 10 Sur 17 Sur 0 -- -- 82
2021-01-19 07:00:00 11 10 Sur 17 Sur 0 -- -- 82
2021-01-19 06:00:00 10.7 9 Sur 17 Sur 0 -- -- 81
2021-01-19 05:00:00 10.9 10 Sur 17 Sur 0 -- -- 80
2021-01-19 04:00:00 10.7 8 Sur 15 Sur 0 -- -- 77
2021-01-19 03:00:00 10.9 9 Sur 16 Sur 0 -- -- 78
2021-01-19 02:00:00 11.4 9 Sur 14 Sur 0 -- -- 84
2021-01-19 01:00:00 11.6 7 Sur 10 Sur 0 -- -- 88
2021-01-19 00:00:00 12 5 Sudoeste 9 Oeste 0 -- -- 89
2021-01-18 23:00:00 12.2 4 Sudoeste 10 Sudoeste 0 -- -- 90
2021-01-18 22:00:00 12.5 5 Sudoeste 8 Sudoeste 0 -- -- 89
2021-01-18 21:00:00 12.8 4 Sudoeste 6 Sudoeste 0 -- -- 88
2021-01-18 20:00:00 13.4 0 Calma 2 Sudeste 0 -- -- 85
2021-01-18 19:00:00 14.6 0 Calma 9 Este 0 -- -- 81
2021-01-18 18:00:00 15.7 4 Este 12 Sudeste 0 -- -- 77
2021-01-18 17:00:00 16.8 5 Sudeste 15 Este 0 -- -- 71
2021-01-18 16:00:00 17 6 Nordeste 16 Este 0 -- -- 71
2021-01-18 15:00:00 17.5 7 Este 20 Este 0 -- -- 72
2021-01-18 14:00:00 17.2 10 Este 18 Este 0 -- -- 72
2021-01-18 13:00:00 17.2 7 Este 16 Nordeste 0 -- -- 72
2021-01-18 12:00:00 17 7 Nordeste 16 Nordeste 0 -- -- 70
2021-01-18 11:00:00 16.4 3 Nordeste 11 Nordeste 0 -- -- 72
2021-01-18 10:00:00 15.2 2 Sur -- -- -- -- -- 75
2021-01-18 09:00:00 -- 10 Sur 14 Sur 0 -- -- --
2021-01-18 08:00:00 11.7 10 Sur 17 Sur 0 -- -- 81
2021-01-18 07:00:00 11.7 9 Sur 15 Sur 0 -- -- 82
2021-01-18 06:00:00 11.5 9 Sur 14 Sur 0 -- -- 83
2021-01-18 05:00:00 11.6 6 Sudoeste 13 Sur 0 -- -- 85
2021-01-18 04:00:00 11.3 8 Sur 14 Sur 0 -- -- 83
2021-01-18 03:00:00 11.7 8 Sur 15 Sudoeste 0 -- -- 85
2021-01-18 02:00:00 11.9 10 Sur 15 Sur 0 -- -- 84
2021-01-18 01:00:00 12.2 9 Sur 14 Sur 0 -- -- 83
2021-01-18 00:00:00 12.3 8 Sur 14 Sur 0 -- -- 82
2021-01-17 23:00:00 13.2 6 Sur 17 Sur 0 -- -- 79
2021-01-17 22:00:00 13.9 5 Sur 8 Sur 0 -- -- 80
2021-01-17 21:00:00 13.5 2 Sudoeste 7 Sudoeste 0 -- -- 80
2021-01-17 20:00:00 14.1 2 Noroeste 6 Noroeste 0 -- -- 76
2021-01-17 19:00:00 14.9 4 Noroeste 10 Nordeste 0 -- -- 74
2021-01-17 18:00:00 15.4 6 Nordeste 14 Nordeste 0 -- -- 73
2021-01-17 17:00:00 15.9 8 Nordeste 15 Nordeste 0 -- -- 72
2021-01-17 16:00:00 16.2 6 Nordeste 16 Nordeste 0 -- -- 70
2021-01-17 15:00:00 16.3 9 Este 17 Este 0 -- -- 68
2021-01-17 14:00:00 16.9 8 Nordeste 22 Este 0 -- -- 67
2021-01-17 13:00:00 16.8 9 Este 21 Nordeste 0 -- -- 70
2021-01-17 12:00:00 17.2 6 Este 18 Este 0 -- -- 68
2021-01-17 11:00:00 16.2 8 Nordeste 18 Nordeste 0 -- -- 67
2021-01-17 10:00:00 15.8 2 Nordeste 10 Sur 0 -- -- 71
2021-01-17 09:00:00 13.9 6 Sur 12 Sur 0 -- -- 73
2021-01-17 08:00:00 13.3 7 Sur 12 Sur 0 -- -- 73
2021-01-17 07:00:00 13.5 7 Sur 10 Sur 0 -- -- 72
2021-01-17 06:00:00 13.8 3 Sudoeste 9 Sudoeste 0 -- -- 74
2021-01-17 05:00:00 14.1 2 Noroeste 14 Nordeste 0 -- -- 73
2021-01-17 04:00:00 14.1 4 Sudoeste 13 Norte 0 -- -- 72
2021-01-17 03:00:00 14.5 6 Nordeste 14 Norte 0 -- -- 71
2021-01-17 02:00:00 14.6 5 Nordeste 15 Norte 0 -- -- 71
2021-01-17 01:00:00 14.5 4 Norte 14 Noroeste 0 -- -- 69
2021-01-17 00:00:00 14.6 3 Norte 13 Nordeste 0 -- -- 71
2021-01-16 23:00:00 14.9 7 Nordeste 18 Nordeste 0 -- -- 68
2021-01-16 22:00:00 14.6 3 Norte 11 Norte 0 -- -- 73
2021-01-16 21:00:00 14.4 2 Oeste 14 Norte 0 -- -- 73
2021-01-16 20:00:00 15.2 5 Norte 15 Nordeste 0 -- -- 73
2021-01-16 19:00:00 15.3 8 Nordeste 18 Nordeste 0 -- -- 82
2021-01-16 18:00:00 15.6 5 Nordeste 20 Nordeste 0.2 -- -- 82
2021-01-16 17:00:00 16.6 8 Nordeste 18 Nordeste 0 -- -- 69
2021-01-16 16:00:00 17.2 9 Este 18 Este 0 -- -- 67
2021-01-16 15:00:00 16.5 9 Nordeste 22 Nordeste 0 -- -- 72
2021-01-16 14:00:00 17 12 Nordeste 22 Nordeste 0 -- -- 70
2021-01-16 13:00:00 17.3 9 Nordeste 20 Nordeste 0 -- -- 60
2021-01-16 12:00:00 17.1 10 Nordeste 18 Nordeste 0 -- -- 63
2021-01-16 11:00:00 16.7 3 Este 15 Nordeste 0 -- -- 61
2021-01-16 10:00:00 15.7 10 Nordeste 17 Nordeste 0 -- -- 64
2021-01-16 09:00:00 14.1 4 Sudoeste 9 Noroeste 0 -- -- 72
2021-01-16 08:00:00 14.1 4 Noroeste 18 Nordeste 0 -- -- 69
2021-01-16 07:00:00 13.5 0 Calma 10 Sudoeste 0 -- -- 76
2021-01-16 06:00:00 13.3 5 Sudoeste 9 Sudoeste 0 -- -- 73
2021-01-16 05:00:00 13.2 4 Sur 8 Sur 0 -- -- 74
2021-01-16 04:00:00 13.7 2 Oeste 17 Nordeste 0 -- -- 70
2021-01-16 03:00:00 14.2 5 Nordeste 17 Este 0 -- -- 67
2021-01-16 02:00:00 14.2 7 Nordeste 18 Nordeste 0 -- -- 74
2021-01-16 01:00:00 14.3 3 Este 14 Nordeste 0 -- -- 64
2021-01-16 00:00:00 13.9 5 Noroeste 19 Nordeste 0 -- -- 68
2021-01-15 23:00:00 14.4 7 Nordeste 22 Nordeste 0 -- -- 67
2021-01-15 22:00:00 14.1 6 Noroeste 18 Noroeste 0 -- -- 70
2021-01-15 21:00:00 14.1 4 Oeste 16 Nordeste 0 -- -- 68
2021-01-15 20:00:00 14.5 7 Norte 19 Norte 0 -- -- 64
2021-01-15 19:00:00 14.5 6 Norte 17 Nordeste 0 -- -- 63
2021-01-15 18:00:00 14.8 8 Norte 18 Norte 0 -- -- 73
2021-01-15 17:00:00 15.3 6 Norte 25 Nordeste 0 -- -- 72
2021-01-15 16:00:00 15.8 8 Norte 16 Norte 0 -- -- 61
2021-01-15 15:00:00 15.1 4 Norte 20 Nordeste 0 -- -- 72
2021-01-15 14:00:00 15.6 7 Norte 20 Nordeste 0 -- -- 68
2021-01-15 13:00:00 15.5 8 Nordeste 20 Nordeste 0 -- -- 60
2021-01-15 12:00:00 15 8 Norte 21 Nordeste 0 -- -- 70
2021-01-15 11:00:00 14.9 3 Norte 12 Nordeste 0 -- -- 64
2021-01-15 10:00:00 14.1 4 Noroeste 13 Nordeste 0 -- -- 70
2021-01-15 09:00:00 14.3 10 Nordeste 24 Nordeste 0 -- -- 65
2021-01-15 08:00:00 14.1 3 Nordeste 20 Nordeste 0 -- -- 66
2021-01-15 07:00:00 13.8 5 Norte 11 Norte 0 -- -- 69
2021-01-15 06:00:00 13.3 4 Sudoeste 7 Oeste 0 -- -- 71
2021-01-15 05:00:00 13.9 3 Noroeste 23 Norte 0 -- -- 65
2021-01-15 04:00:00 14.2 6 Nordeste 19 Este 0 -- -- 69
2021-01-15 03:00:00 14.1 5 Norte 23 Nordeste 0 -- -- 61
2021-01-15 02:00:00 14.4 9 Norte 23 Nordeste 0 -- -- 69
2021-01-15 01:00:00 14.5 8 Nordeste 21 Nordeste 0 -- -- 70
2021-01-15 00:00:00 13.3 3 Oeste 12 Sudoeste 0 -- -- 77
2021-01-14 23:00:00 12.8 5 Sudoeste 13 Nordeste 0 -- -- 72
2021-01-14 22:00:00 14.2 6 Nordeste 21 Nordeste 0 -- -- 62
2021-01-14 21:00:00 14.4 6 Norte 21 Nordeste 0 -- -- 62
2021-01-14 20:00:00 14.7 11 Nordeste 23 Nordeste 0 -- -- 66
2021-01-14 19:00:00 14.7 7 Nordeste 20 Nordeste 0 -- -- 70
2021-01-14 18:00:00 14.9 8 Nordeste 20 Nordeste 0 -- -- 67
2021-01-14 17:00:00 15.1 8 Nordeste 17 Nordeste 0 -- -- 72
2021-01-14 16:00:00 15.2 8 Nordeste 22 Nordeste 0 -- -- 69
2021-01-14 15:00:00 15.7 7 Nordeste 20 Nordeste 0 -- -- 70
2021-01-14 14:00:00 15.3 8 Nordeste 22 Nordeste 0 -- -- 71
2021-01-14 13:00:00 15.3 11 Nordeste 26 Este 0 -- -- 75
2021-01-14 12:00:00 17.1 9 Este 24 Nordeste 0 -- -- 64
2021-01-14 11:00:00 15.3 9 Nordeste 20 Este 0 -- -- 68
2021-01-14 10:00:00 15.2 9 Este 18 Nordeste 0 -- -- 71
2021-01-14 09:00:00 15.2 10 Nordeste 19 Nordeste 0 -- -- 72
2021-01-14 08:00:00 13.9 5 Nordeste 13 Este 0 -- -- 78
2021-01-14 07:00:00 13.6 2 Nordeste 9 Nordeste 0 -- -- 80
2021-01-14 06:00:00 13.5 4 Nordeste 11 Nordeste 0 -- -- 79
2021-01-14 05:00:00 12.9 3 Sudeste 6 Este 0 -- -- 83
2021-01-14 04:00:00 12.8 4 Sur 8 Sur 0 -- -- 85
2021-01-14 03:00:00 13.1 0 Calma 8 Nordeste 0 -- -- 81
2021-01-14 02:00:00 14.1 4 Nordeste 9 Norte 0 -- -- 80
2021-01-14 01:00:00 14 4 Oeste 8 Oeste 0 -- -- 83
2021-01-14 00:00:00 14.2 0 Calma 9 Nordeste 0 -- -- 80
2021-01-13 23:00:00 14.3 2 Norte 9 Norte 0 -- -- 78
2021-01-13 22:00:00 14.5 2 Norte 15 Nordeste 0 -- -- 76
2021-01-13 21:00:00 14.8 7 Nordeste 17 Este 0 -- -- 72
2021-01-13 20:00:00 14.3 4 Norte 11 Norte 0 -- -- 73
2021-01-13 19:00:00 14.4 3 Norte 14 Norte 0 -- -- 71
2021-01-13 18:00:00 15 6 Norte 17 Nordeste 0 -- -- 70
2021-01-13 17:00:00 15.5 5 Norte 17 Norte 0 -- -- 67
2021-01-13 16:00:00 16 10 Nordeste 21 Nordeste 0 -- -- 66
2021-01-13 15:00:00 16.4 9 Nordeste 22 Nordeste 0 -- -- 66
2021-01-13 14:00:00 16.2 10 Nordeste 24 Nordeste 0 -- -- 64
2021-01-13 13:00:00 16.2 11 Nordeste 24 Nordeste 0 -- -- 66
2021-01-13 12:00:00 16.2 10 Nordeste 24 Nordeste 0 -- -- 69
2021-01-13 11:00:00 15.8 12 Nordeste 25 Nordeste 0 -- -- 72
2021-01-13 10:00:00 14.6 10 Nordeste 23 Nordeste 0 -- -- 77
2021-01-13 09:00:00 14.3 12 Nordeste 23 Nordeste 0 -- -- 78
2021-01-13 08:00:00 13.9 8 Nordeste 21 Nordeste 0 -- -- 81
2021-01-13 07:00:00 13.8 9 Nordeste 17 Norte 0 -- -- 81
2021-01-13 06:00:00 13.3 4 Norte 10 Norte 0 -- -- 86
2021-01-13 05:00:00 13.2 3 Nordeste 16 Nordeste 0.2 -- -- 87
2021-01-13 04:00:00 12.5 0 Calma 8 Noroeste 0 -- -- 91
2021-01-13 03:00:00 12.8 3 Noroeste 7 Norte 0 -- -- 88
2021-01-13 02:00:00 13.2 3 Norte 15 Norte 0 -- -- 88
2021-01-13 01:00:00 13.3 4 Norte 15 Noroeste 2.2 -- -- 90
2021-01-13 00:00:00 12.8 4 Oeste 8 Oeste 0 -- -- 87
2021-01-12 23:00:00 13.1 4 Noroeste 8 Noroeste 0 -- -- 83
2021-01-12 22:00:00 13.2 5 Noroeste 15 Este 1.4 -- -- 86
2021-01-12 21:00:00 12.9 3 Noroeste 10 Sudoeste 0.2 -- -- 88
2021-01-12 20:00:00 12.6 5 Sudoeste 11 Sudoeste 0 -- -- 89
2021-01-12 19:00:00 12.5 6 Sudoeste 9 Sudoeste 0 -- -- 89
2021-01-12 18:00:00 13.2 0 Calma 23 Nordeste 1.8 -- -- 86
2021-01-12 17:00:00 14.7 8 Noroeste 17 Oeste 0 -- -- 72
2021-01-12 16:00:00 15.2 7 Noroeste 15 Noroeste 0 -- -- 67
2021-01-12 15:00:00 15.1 5 Noroeste 11 Oeste 0 -- -- 76
2021-01-12 14:00:00 14.4 4 Sudoeste 7 Sudoeste 0 -- -- 85
2021-01-12 13:00:00 13.3 4 Este 14 Norte 1.4 -- -- 91
2021-01-12 12:00:00 13.3 4 Noroeste 17 Noroeste 0.8 -- -- 91
2021-01-12 11:00:00 15.5 3 Oeste 13 Sur 0 -- -- 73
2021-01-12 10:00:00 12.7 8 Sudoeste 17 Sur 0 -- -- 87
2021-01-12 09:00:00 11.7 7 Oeste 13 Noroeste 0 -- -- 93
2021-01-12 08:00:00 11.9 3 Sudeste 17 Este 0 -- -- 93
2021-01-12 07:00:00 11.6 2 Oeste 26 Noroeste 0.6 -- -- 90
2021-01-12 06:00:00 12.1 13 Noroeste 23 Norte 0.6 -- -- 92
2021-01-12 05:00:00 12 6 Sudoeste 16 Norte 0.2 -- -- 90
2021-01-12 04:00:00 12.5 3 Sudeste 10 Norte 0 -- -- 87
2021-01-12 03:00:00 12.1 4 Sudoeste 9 Oeste 0 -- -- 82
2021-01-12 02:00:00 12.1 3 Oeste 8 Oeste 0 -- -- 82
2021-01-12 01:00:00 12.8 3 Oeste 7 Noroeste 0 -- -- 78
2021-01-12 00:00:00 13.1 3 Noroeste 12 Nordeste 0 -- -- 73
2021-01-11 23:00:00 13.6 6 Norte 23 Norte 0 -- -- 73
2021-01-11 22:00:00 13.8 8 Norte 23 Norte 0 -- -- 76
2021-01-11 21:00:00 13.8 10 Norte 21 Noroeste 0 -- -- 78
2021-01-11 20:00:00 13.3 6 Norte 19 Noroeste 0 -- -- 76
2021-01-11 19:00:00 12.7 4 Noroeste 15 Noroeste 0.2 -- -- 87
2021-01-11 18:00:00 12.3 8 Noroeste 33 Noroeste 2.8 -- -- 92
2021-01-11 17:00:00 13.8 9 Norte 26 Noroeste 0 -- -- 77
2021-01-11 16:00:00 14.7 15 Noroeste 35 Noroeste 0 -- -- 70
2021-01-11 15:00:00 14.5 18 Noroeste 33 Norte 0 -- -- 70
2021-01-11 14:00:00 14.8 16 Norte 33 Norte 0 -- -- 73
2021-01-11 13:00:00 15.4 15 Noroeste 32 Norte 0.2 -- -- 69
2021-01-11 12:00:00 15.1 14 Noroeste 32 Noroeste 0 -- -- 70
2021-01-11 11:00:00 14.7 15 Noroeste 34 Noroeste 0 -- -- 74
2021-01-11 10:00:00 14.7 13 Noroeste 27 Noroeste 0 -- -- 66
2021-01-11 09:00:00 13.5 15 Noroeste 32 Noroeste 0 -- -- 67
2021-01-11 08:00:00 12.4 7 Oeste 22 Noroeste 0 -- -- 70
2021-01-11 07:00:00 13.1 11 Noroeste 23 Norte 0 -- -- 70
2021-01-11 06:00:00 13.1 13 Noroeste 26 Noroeste 0 -- -- 69
2021-01-11 05:00:00 13.4 16 Noroeste 33 Noroeste 0 -- -- 66
2021-01-11 04:00:00 13.3 15 Noroeste 30 Noroeste 0 -- -- 69
2021-01-11 03:00:00 13.1 14 Noroeste 31 Noroeste 0.2 -- -- 74
2021-01-11 02:00:00 13 17 Noroeste 30 Norte 0.2 -- -- 80
2021-01-11 01:00:00 12.4 19 Noroeste 36 Noroeste 1.8 -- -- 88
2021-01-11 00:00:00 12.9 12 Noroeste 31 Noroeste 0 -- -- 86
2021-01-10 23:00:00 12.7 15 Noroeste 43 Noroeste 0.6 -- -- 90
2021-01-10 22:00:00 13.1 15 Noroeste 41 Noroeste 0.2 -- -- 87
2021-01-10 21:00:00 14.5 17 Noroeste 41 Noroeste 0 -- -- 68
2021-01-10 20:00:00 14.4 21 Noroeste 42 Noroeste 0 -- -- 72
2021-01-10 19:00:00 14.6 19 Noroeste 49 Noroeste 0 -- -- 67
2021-01-10 18:00:00 14.6 21 Noroeste 47 Oeste 0 -- -- 74
2021-01-10 17:00:00 15.2 22 Noroeste 45 Noroeste 0 -- -- 68
2021-01-10 16:00:00 15.5 22 Noroeste 49 Noroeste 0 -- -- 65
2021-01-10 15:00:00 16.2 23 Noroeste 55 Oeste 0 -- -- 59
2021-01-10 14:00:00 16 23 Noroeste 52 Noroeste 0 -- -- 67
2021-01-10 13:00:00 16.1 26 Noroeste 48 Oeste 0 -- -- 63
2021-01-10 12:00:00 15.4 21 Noroeste 45 Noroeste 0 -- -- 71
2021-01-10 11:00:00 15.6 26 Noroeste 47 Noroeste 0 -- -- 68
2021-01-10 10:00:00 14.8 18 Noroeste 50 Noroeste 0 -- -- 70
2021-01-10 09:00:00 13.6 19 Noroeste 41 Noroeste 0.2 -- -- 76
2021-01-10 08:00:00 13.5 16 Noroeste 34 Oeste 0 -- -- 79
2021-01-10 07:00:00 12.5 13 Oeste 38 Oeste 0.2 -- -- 80
2021-01-10 06:00:00 12.6 21 Noroeste 42 Oeste 0 -- -- 78
2021-01-10 05:00:00 12.2 18 Oeste 33 Oeste 0.2 -- -- 88
2021-01-10 04:00:00 13.1 20 Noroeste 38 Noroeste 0 -- -- 76
2021-01-10 03:00:00 13.3 19 Noroeste 36 Noroeste 0 -- -- 77
2021-01-10 02:00:00 12.6 9 Noroeste 26 Noroeste 0.4 -- -- 87
2021-01-10 01:00:00 13.3 14 Noroeste 35 Noroeste 0 -- -- 75
2021-01-10 00:00:00 12.9 12 Noroeste 36 Noroeste 0 -- -- 74
2021-01-09 23:00:00 13.2 15 Noroeste 33 Noroeste 0 -- -- 74
2021-01-09 22:00:00 13.4 18 Noroeste 33 Noroeste 0 -- -- 69
2021-01-09 21:00:00 13.5 20 Noroeste 37 Noroeste 0 -- -- 66
2021-01-09 20:00:00 13.3 21 Noroeste 34 Noroeste 0 -- -- 73
2021-01-09 19:00:00 13.3 22 Noroeste 39 Noroeste 0 -- -- 70
2021-01-09 18:00:00 13.4 25 Noroeste 50 Noroeste 0 -- -- 70
2021-01-09 17:00:00 13.5 23 Noroeste 42 Noroeste 0 -- -- 70
2021-01-09 16:00:00 14 24 Noroeste 43 Noroeste 0 -- -- 71
2021-01-09 15:00:00 12.7 23 Noroeste 47 Noroeste 1.6 -- -- 84
2021-01-09 14:00:00 14.5 24 Noroeste 49 Norte 0 -- -- 62
2021-01-09 13:00:00 12.7 16 Oeste 45 Oeste 0.6 -- -- 79
2021-01-09 12:00:00 14.1 18 Noroeste 43 Noroeste 0 -- -- 74
2021-01-09 11:00:00 13.9 21 Noroeste 38 Noroeste 0.2 -- -- 78
2021-01-09 10:00:00 12.9 21 Noroeste 39 Noroeste 0.6 -- -- 79
2021-01-09 09:00:00 12.7 14 Oeste 49 Sudoeste 1.2 -- -- 79
2021-01-09 08:00:00 12.3 15 Oeste 31 Oeste 0 -- -- 75
2021-01-09 07:00:00 12.3 21 Oeste 37 Oeste 0.2 -- -- 76
2021-01-09 06:00:00 11.9 14 Oeste 33 Oeste 0 -- -- 80
2021-01-09 05:00:00 11.7 18 Oeste 34 Oeste 0.2 -- -- 84
2021-01-09 04:00:00 12 11 Oeste 24 Oeste 0 -- -- 88
2021-01-09 03:00:00 12.3 13 Noroeste 27 Noroeste 0 -- -- 82
2021-01-09 02:00:00 12.1 10 Noroeste 24 Noroeste 1.8 -- -- 87
2021-01-09 01:00:00 12.8 12 Oeste 24 Noroeste 0 -- -- 81
2021-01-09 00:00:00 12.9 12 Noroeste 29 Noroeste 0.2 -- -- 78
2021-01-08 23:00:00 13.1 14 Noroeste 34 Noroeste 0 -- -- 81
2021-01-08 22:00:00 12 6 Oeste 23 Oeste 1.8 -- -- 93
2021-01-08 21:00:00 12 14 Oeste 31 Oeste 6.8 -- -- 93
2021-01-08 20:00:00 12.6 12 Oeste 24 Oeste 3.6 -- -- 93
2021-01-08 19:00:00 12.7 9 Oeste 27 Oeste 2.8 -- -- 92
2021-01-08 18:00:00 13.4 10 Oeste 24 Oeste 1.2 -- -- 93
2021-01-08 17:00:00 13.6 10 Noroeste -- -- 2.6 -- -- 89
2021-01-08 16:00:00 14.6 15 Noroeste 34 Oeste 0 -- -- 81
2021-01-08 15:00:00 14.4 22 Noroeste 35 Noroeste 0.4 -- -- 89
2021-01-08 14:00:00 14.3 15 Noroeste 34 Noroeste 0.4 -- -- 93
2021-01-08 13:00:00 14.1 10 Noroeste 37 Oeste 4.6 -- -- 94
2021-01-08 12:00:00 15.4 13 Noroeste 35 Oeste 1.8 -- -- 86
2021-01-08 11:00:00 15.2 14 Noroeste 38 Oeste 1.8 -- -- 88
2021-01-08 10:00:00 15.3 18 Noroeste 36 Oeste 2.4 -- -- 88
2021-01-08 09:00:00 15.5 16 Noroeste 33 Oeste 0.4 -- -- 85
2021-01-08 08:00:00 15.5 11 Oeste 23 Noroeste 0 -- -- 88
2021-01-08 07:00:00 15.7 9 Noroeste 24 Oeste 0 -- -- 86
2021-01-08 06:00:00 15.9 13 Oeste 44 Oeste 0.4 -- -- 82
2021-01-08 05:00:00 18.2 11 Noroeste 44 Oeste 0 -- -- 62
2021-01-08 04:00:00 18.8 21 Oeste 56 Sudoeste 0 -- -- 55
2021-01-08 03:00:00 19.4 22 Sudoeste 55 Oeste 0 -- -- 56
2021-01-08 02:00:00 19.2 13 Sudoeste 33 Oeste 0 -- -- 58
2021-01-08 01:00:00 18.4 7 Oeste 22 Oeste 0 -- -- 70
2021-01-08 00:00:00 18.4 8 Nordeste 16 Nordeste 0 -- -- 76
2021-01-07 23:00:00 17.6 4 Sudoeste 18 Sudeste 0 -- -- 82
2021-01-07 22:00:00 18.9 6 Sudeste 26 Sur 0 -- -- 72
2021-01-07 21:00:00 19 8 Oeste 23 Oeste 0.2 -- -- 69
2021-01-07 20:00:00 20 5 Sur 23 Sudeste 0 -- -- 68
2021-01-07 19:00:00 20.8 7 Oeste 21 Oeste 0 -- -- 62
2021-01-07 18:00:00 21.3 6 Sur 28 Noroeste 0 -- -- 58
2021-01-07 17:00:00 22 10 Sudeste 34 Sudoeste 0 -- -- 58
2021-01-07 16:00:00 21.9 15 Sur 31 Sur 0 -- -- 63
2021-01-07 15:00:00 23.5 11 Sur 32 Sur 0 -- -- 55
2021-01-07 14:00:00 22.3 12 Oeste 29 Sudoeste 0 -- -- 62
2021-01-07 13:00:00 19.7 7 Este 20 Este 0.2 -- -- 81
2021-01-07 12:00:00 20.1 6 Norte 17 Oeste 0.4 -- -- 81
2021-01-07 11:00:00 20.2 4 Norte 9 Este 0 -- -- 78
2021-01-07 10:00:00 20.1 6 Este 13 Sudeste 0 -- -- 70
2021-01-07 09:00:00 18.3 5 Este 14 Sudoeste 0 -- -- 78
2021-01-07 08:00:00 17.4 4 Oeste 8 Sudoeste 0 -- -- 82
2021-01-07 07:00:00 17.9 3 Oeste 10 Sudoeste 0 -- -- 79
2021-01-07 06:00:00 17.8 4 Sudoeste 15 Sudoeste 0 -- -- 79
2021-01-07 05:00:00 18.1 3 Sur 12 Norte 0 -- -- 79
2021-01-07 04:00:00 18.6 6 Nordeste 13 Norte 0 -- -- 75
2021-01-07 03:00:00 18.3 4 Oeste 21 Sudoeste 0 -- -- 74
2021-01-07 02:00:00 17.7 6 Sudeste 15 Sur 0 -- -- 79
2021-01-07 01:00:00 17.5 3 Sudoeste 14 Sudoeste 0 -- -- 81
2021-01-07 00:00:00 18.2 2 Sur 15 Sur 0 -- -- 81
2021-01-06 23:00:00 18.4 10 Noroeste 18 Noroeste 0 -- -- 83
2021-01-06 22:00:00 20.6 7 Sur 21 Sur 0 -- -- 56
2021-01-06 21:00:00 21.4 14 Sudoeste 28 Sudeste 0 -- -- 51
2021-01-06 20:00:00 21.7 15 Sur 30 Sudoeste 0 -- -- 52
2021-01-06 19:00:00 21.9 10 Sur 26 Sur 0 -- -- 57
2021-01-06 18:00:00 21.9 4 Oeste 16 Sudeste 0 -- -- 59
2021-01-06 17:00:00 22.1 13 Norte 33 Noroeste 0 -- -- 63
2021-01-06 16:00:00 20.8 9 Nordeste 22 Nordeste 0 -- -- 77
2021-01-06 15:00:00 20.6 2 Sudeste 21 Este 0 -- -- 79
2021-01-06 14:00:00 20.8 8 Este 18 Sudeste 0 -- -- 76
2021-01-06 13:00:00 20.5 8 Sudeste 17 Sudeste 0 -- -- 77
2021-01-06 12:00:00 20.9 2 Este 15 Sudeste 0 -- -- 78
2021-01-06 11:00:00 20.3 8 Este 26 Sudeste 0 -- -- 77
2021-01-06 10:00:00 20 15 Sudeste 28 Sudeste 0 -- -- 78
2021-01-06 09:00:00 18 3 Sur 22 Sur 0 -- -- 87
2021-01-06 08:00:00 18.2 11 Sudeste 27 Sur 0 -- -- 89
2021-01-06 07:00:00 17.9 12 Sudeste 28 Sudeste 0 -- -- 87
2021-01-06 06:00:00 18 13 Sudeste 26 Sudeste 0 -- -- 81
2021-01-06 05:00:00 17.9 9 Sudeste 18 Sudeste 0 -- -- 73
2021-01-06 04:00:00 16.2 9 Sur 18 Sudoeste 0 -- -- 83
2021-01-06 03:00:00 15.8 3 Sur 9 Sur 0 -- -- 85
2021-01-06 02:00:00 15.8 5 Sudeste 15 Sudoeste 0 -- -- 86
2021-01-06 01:00:00 15.8 5 Sur 13 Sur 0 -- -- 86
2021-01-06 00:00:00 15.9 6 Sur 14 Sur 0 -- -- 85
2021-01-05 23:00:00 16 5 Sudoeste 14 Sur 0 -- -- 84
2021-01-05 22:00:00 16.3 3 Sudoeste 8 Sudoeste 0 -- -- 84
2021-01-05 21:00:00 17.1 3 Sur 15 Sudeste 0 -- -- 78
2021-01-05 20:00:00 17.5 6 Sur 13 Sudeste 0 -- -- 76
2021-01-05 19:00:00 18.2 4 Sudeste 8 Sudeste 0 -- -- 83
2021-01-05 18:00:00 19 4 Este 12 Este 0 -- -- 77
2021-01-05 17:00:00 19.9 6 Nordeste 12 Nordeste 0 -- -- 71
2021-01-05 16:00:00 21 5 Nordeste 14 Nordeste 0 -- -- 66
2021-01-05 15:00:00 21.2 6 Nordeste 16 Nordeste 0 -- -- 63
2021-01-05 14:00:00 20.9 8 Nordeste 21 Este 0 -- -- 65
2021-01-05 13:00:00 21.1 12 Sudeste 22 Sudeste 0 -- -- 63
2021-01-05 12:00:00 21.4 7 Este 14 Este 0 -- -- 62
2021-01-05 11:00:00 21.1 6 Este 13 Nordeste 0 -- -- 62
2021-01-05 10:00:00 20.1 4 Sur 7 Sudeste 0 -- -- 64
2021-01-05 09:00:00 16.8 4 Este 13 Sur 0 -- -- 74
2021-01-05 08:00:00 14.7 6 Sur 12 Sur 0 -- -- 77
2021-01-05 07:00:00 14.2 5 Sudoeste 12 Sudoeste 0 -- -- 80
2021-01-05 06:00:00 15.1 9 Sur 15 Sudoeste 0 -- -- 75
2021-01-05 05:00:00 15.8 5 Sur 9 Este 0 -- -- 83
2021-01-05 04:00:00 15.3 6 Sudeste 13 Sur 0 -- -- 83
2021-01-05 03:00:00 15.3 8 Sur 14 Sur 0 -- -- 84
2021-01-05 02:00:00 14.8 6 Sudoeste 9 Sur 0 -- -- 84
2021-01-05 01:00:00 15 3 Sur 12 Oeste 0 -- -- 82
2021-01-05 00:00:00 15.4 5 Sur 10 Este 0 -- -- 82
2021-01-04 23:00:00 15.5 4 Sudoeste 9 Sur 0 -- -- 82
2021-01-04 22:00:00 15.4 2 Sur 10 Este 0 -- -- 84
2021-01-04 21:00:00 15.5 6 Sur 9 Sudeste 0 -- -- 84
2021-01-04 20:00:00 15.8 3 Sudeste 10 Sur 0 -- -- 83
2021-01-04 19:00:00 15.9 4 Sudoeste 8 Noroeste 0 -- -- 83
2021-01-04 18:00:00 16.6 3 Noroeste 12 Noroeste 0 -- -- 79
2021-01-04 17:00:00 16.9 6 Noroeste 13 Noroeste 0 -- -- 78
2021-01-04 16:00:00 17.3 6 Noroeste 13 Oeste 0 -- -- 78
2021-01-04 15:00:00 17.9 6 Noroeste 16 Sudeste 0 -- -- 74
2021-01-04 14:00:00 18.4 6 Sudeste 15 Sudeste 0 -- -- 72
2021-01-04 13:00:00 18.6 5 Este 17 Sudeste 0 -- -- 72
2021-01-04 12:00:00 18.5 8 Este 17 Sur 0 -- -- 72
2021-01-04 11:00:00 17.3 12 Sudeste 27 Sudeste 0 -- -- 77
2021-01-04 10:00:00 16.3 9 Sudeste 19 Sudeste 0 -- -- 77
2021-01-04 09:00:00 15.1 3 Sur 17 Sudeste 0 -- -- 81
2021-01-04 08:00:00 15 10 Sudeste 24 Sudeste 0 -- -- 82
2021-01-04 07:00:00 14.7 8 Sudeste 19 Sudeste 0 -- -- 82
2021-01-04 06:00:00 14.1 6 Sudeste 12 Sudeste 0 -- -- 77
2021-01-04 05:00:00 14.5 4 Sur 12 Sudeste 0 -- -- 79
2021-01-04 04:00:00 14.3 4 Sur 10 Sur 0 -- -- 80
2021-01-04 03:00:00 14.6 4 Sur 15 Sudeste 0 -- -- 79
2021-01-04 02:00:00 14.9 9 Sur 17 Sudeste 0 -- -- 77
2021-01-04 01:00:00 14.7 6 Sudeste 11 Sur 0 -- -- 76
2021-01-04 00:00:00 14.7 4 Sur 9 Sudeste 0 -- -- 77
2021-01-03 23:00:00 14.5 4 Sur 9 Sudeste 0 -- -- 75
2021-01-03 22:00:00 14.9 5 Sur 8 Sur 0 -- -- 74
2021-01-03 21:00:00 14.6 2 Sur 5 Sudeste 0 -- -- 74
2021-01-03 20:00:00 15.2 2 Sudeste 10 Sudeste 0 -- -- 72
2021-01-03 19:00:00 15.5 6 Sudeste 14 Sudeste 0 -- -- 71
2021-01-03 18:00:00 15.8 8 Este 14 Este 0 -- -- 71
2021-01-03 17:00:00 16.3 9 Este 17 Sudeste 0 -- -- 70
2021-01-03 16:00:00 16.8 6 Este 14 Este 0 -- -- 68
2021-01-03 15:00:00 16.5 5 Este 10 Nordeste 0 -- -- 69
2021-01-03 14:00:00 16 5 Nordeste 15 Nordeste 0 -- -- 74
2021-01-03 13:00:00 15.7 6 Nordeste 17 Este 0 -- -- 77
2021-01-03 12:00:00 16.1 5 Este 12 Este 0 -- -- 73
2021-01-03 11:00:00 15.9 4 Este 8 Nordeste 0 -- -- 71
2021-01-03 10:00:00 15.6 3 Sudeste 6 Sudeste 0 -- -- 74
2021-01-03 09:00:00 14.3 3 Sur 12 Sur 0 -- -- 76
2021-01-03 08:00:00 13.8 6 Sur 12 Sur 0 -- -- 74
2021-01-03 07:00:00 13.5 6 Sur 14 Sudoeste 0 -- -- 81
2021-01-03 06:00:00 13.8 5 Sur 9 Sur 0 -- -- 80
2021-01-03 05:00:00 13.8 4 Sur 6 Sur 0 -- -- 81
2021-01-03 04:00:00 14.2 4 Sur 6 Sur 0 -- -- 78
2021-01-03 03:00:00 14.5 2 Sur 8 Nordeste 0 -- -- 76
2021-01-03 02:00:00 14.9 3 Este 11 Este 0 -- -- 72
2021-01-03 01:00:00 15 3 Este 12 Este 0 -- -- 74
2021-01-03 00:00:00 14.5 3 Nordeste 8 Nordeste 0 -- -- 77
2021-01-02 23:00:00 14.4 3 Sur 10 Nordeste 0 -- -- 81
2021-01-02 22:00:00 14.3 3 Sur 6 Sur 0 -- -- 75
2021-01-02 21:00:00 14.9 3 Nordeste 11 Nordeste 0 -- -- 70
2021-01-02 20:00:00 15.4 3 Nordeste 12 Nordeste 0 -- -- 69
2021-01-02 19:00:00 15.4 6 Este 12 Este 0 -- -- 72
2021-01-02 18:00:00 15.5 6 Nordeste 14 Nordeste 0 -- -- 75
2021-01-02 17:00:00 15.7 5 Nordeste 17 Nordeste 0 -- -- 77
2021-01-02 16:00:00 16.2 8 Noroeste 14 Noroeste 0 -- -- 67
2021-01-02 15:00:00 16.4 4 Noroeste 14 Norte 0 -- -- 68
2021-01-02 14:00:00 16.2 4 Noroeste 12 Nordeste 0 -- -- 68
2021-01-02 13:00:00 16 5 Norte 12 Nordeste 0 -- -- 67